Language: 


Des rapports , des résumés tant et plus, au choix de chacun....


Données Historiques de Météogheer
Journalier Rapport pour Janvier 10, 2018 Unitée:  Impériale    Métrique   Les deux
Suivant Jour »
Journalier Hebdomadaire Mensuel Annuel Sur mesure
  Max: Min: Moyenne:
Température: 51.1 °F 45.3 °F 47.5 °F
Point de rosée: 51.8 °F 44.6 °F 47.7 °F
Humidité: 98% 95% 97%
Vent: 10.3mph 0mph 2.8mph
Rafales: 10.3mph - -
Vent- - SSW
Pression: 29.7 in 29.7 in -
Pluie: 0.23 in    
Historical Graphs
 
 
Données tabulaires pour Janvier 10, 2018
Heure Température Point de rosée Pression Vent Vent Rafales Humidité Pluie Taux (Horaire) Conditions
00:01 45.3 °F 44.6 °F 29.7 in SSW 3.4 mph 6 mph 98% 0 in
00:02 45.3 °F 44.6 °F 29.7 in SSW 1.1 mph 6 mph 98% 0 in
00:07 45.3 °F 44.6 °F 29.7 in SSW 3.6 mph 6 mph 98% 0 in
00:24 45.5 °F 46.4 °F 29.7 in SSW 3.6 mph 6.5 mph 98% 0 in
00:29 45.5 °F 46.4 °F 29.7 in Calm   6.5 mph 98% 0 in
00:53 45.5 °F 46.4 °F 29.7 in Calm   4 mph 98% 0 in
14:32 49.8 °F 50 °F 29.7 in WSW 6.3 mph 9.2 mph 98% 0 in
14:47 51.1 °F 51.8 °F 29.7 in SSW 6 mph 7.8 mph 98% 0 in
14:53 50.9 °F 51.8 °F 29.7 in WSW 10.3 mph 10.3 mph 98% 0 in
14:59 50.5 °F 50 °F 29.7 in WSW 6 mph 10.3 mph 97% 0 in
15:20 49.6 °F 48.2 °F 29.7 in SSW 4 mph 8.1 mph 96% 0 in
15:54 49.3 °F 48.2 °F 29.7 in SSW 3.4 mph 6.7 mph 96% 0 in
16:15 49.1 °F 48.2 °F 29.7 in Calm   5.4 mph 95% 0 in
16:21 48.7 °F 48.2 °F 29.7 in SSW 5.6 mph 5.6 mph 95% 0 in
16:28 48.2 °F 48.2 °F 29.7 in SSE 4 mph 7.6 mph 95% 0 in
16:36 47.8 °F 48.2 °F 29.7 in SSW 2.7 mph 5.8 mph 96% 0 in
16:45 47.7 °F 48.2 °F 29.7 in Calm   5.8 mph 96% 0 in
16:54 47.3 °F 48.2 °F 29.7 in South 3.4 mph 4.9 mph 96% 0 in
17:02 47.3 °F 48.2 °F 29.7 in Calm   4.3 mph 97% 0 in
17:09 47.3 °F 48.2 °F 29.7 in Calm   5.6 mph 98% 0 in
17:30 47.1 °F 48.2 °F 29.7 in SSE 2.2 mph 5.8 mph 98% 0 in
17:35 46.9 °F 48.2 °F 29.7 in South 3.4 mph 5.8 mph 98% 0 in
17:40 46.8 °F 46.4 °F 29.7 in Calm   6.7 mph 98% 0 in
17:59 46.6 °F 46.4 °F 29.7 in SSW 1.1 mph 5.6 mph 98% 0 in
18:06 46.4 °F 46.4 °F 29.7 in SSW 3.6 mph 5.6 mph 98% 0 in
18:25 46.8 °F 46.4 °F 29.7 in SSW 3.4 mph 5.8 mph 98% 0 in
18:30 46.8 °F 46.4 °F 29.7 in Calm   5.8 mph 98% 0 in
18:48 46.6 °F 46.4 °F 29.7 in SSW 3.6 mph 6 mph 98% 0 in
19:05 46.4 °F 46.4 °F 29.7 in Calm   4.3 mph 98% 0 in
Données Historique de Météo Turbie

Mise a jour : 26/05/2018 06:00:13
Généré par Cumulus 1.9.4 (1099)